Home > Weather > Bahía Blanca > Past weeks

Flag for Argentina Weather for the Past 2 Weeks in Bahía Blanca, Buenos Aires, Argentina

Now
50 °F

Mostly cloudy.


Feels Like: 49 °F
Forecast: 37 / 60 °F
Wind: 3 mph from North

Location: Mar Del Plata Aerodrome

Current Time: May 3, 2016 at 11:42:37 AM

Latest Report: May 3, 2016 at 11:00 AM


Visibility: N/A

Pressure: 30.33 "Hg

Humidity: 71%

Dew Point: 41 °F

Location of Bahía BlancaLocation

Historic Weather in Bahía Blanca — Graph

°F

Bahía Blanca Temperature Yesterday

Maximum temperature yesterday: 72 °F (at 12:00 PM)
Minimum temperature yesterday: 50 °F (at 11:00 PM)
Average temperature yesterday: 53 °F

High & Low Weather Summary for the Past Weeks

 TemperatureHumidityPressure
High72 °F (Apr 20, 3:00 PM)100% (Apr 19, 9:00 AM)30.33 "Hg (Apr 19, 9:00 AM)
Low39 °F (Apr 22, 5:00 AM)33% (May 2, 12:00 PM)29.65 "Hg (Apr 23, 2:00 PM)
Average53 °F77%30.00 "Hg
* Reported Apr 18 10:00 AM — May 3 10:00 AM, Bahía Blanca, Weather by CustomWeather, © 2016

Note: Actual official high and low records may vary slightly from our data, if they occured in-between our weather recording intervals... More about our weather records

Advertising

Bahía Blanca Weather History for the Previous 24 Hours

Scroll right to see more
 ConditionsComfort  
Time TempWeatherWind HumidityBarometerVisibility
10:00 AM
Tue, May 3
50 °FMostly cloudy.5 mph67%30.33 "HgN/A
9:00 AM50 °FOvercast.2 mph76%30.30 "HgN/A
8:00 AM48 °FOvercast.No wind87%30.30 "HgN/A
7:00 AM48 °FMostly cloudy.No wind82%30.30 "HgN/A
6:00 AM48 °FOvercast.No wind82%30.30 "HgN/A
5:00 AM50 °FMostly cloudy.No wind76%30.30 "HgN/A
4:00 AM50 °FOvercast.6 mph76%30.30 "HgN/A
3:00 AM50 °FOvercast.5 mph76%30.30 "HgN/A
1:00 AM50 °FMostly cloudy.3 mph76%30.30 "HgN/A
11:00 PM
Mon, May 2
50 °FMostly cloudy.9 mph82%30.30 "HgN/A
10:00 PM52 °FMostly cloudy.7 mph72%30.27 "HgN/A
9:00 PM52 °FMostly cloudy.7 mph77%30.27 "HgN/A
8:00 PM52 °FMostly cloudy.6 mph82%30.27 "HgN/A
7:00 PM52 °FPassing clouds.9 mph77%30.27 "HgN/A
6:00 PM52 °FPassing clouds.9 mph77%30.24 "HgN/A
5:00 PM52 °FPassing clouds.10 mph77%30.24 "HgN/A
4:00 PM54 °FPartly sunny.12 mph67%30.21 "HgN/A
3:00 PM54 °FPartly sunny.12 mph67%30.18 "HgN/A
2:00 PM54 °FMostly cloudy.7 mph67%30.18 "HgN/A
1:00 PM54 °FPartly sunny.14 mph63%30.18 "HgN/A
12:00 PM72 °FPartly sunny.13 mph33%30.18 "HgN/A
11:00 AM54 °FPartly sunny.10 mph72%30.18 "HgN/A
Weather by CustomWeather, © 2016

See weather overviewHow to use our weather pages